| time (UTC) | temp F | wind direction | speed MPH | gust MPH | rain 1hr in | rain 24hr in | rain mn in | humidity % | barometer mb |
| 20260506051144 | 75 | 190 | 3.0 | 7.0 | 0.00 | 0.00 | 0.00 | 92 | 1009.6 |
| 20260506050643 | 75 | 131 | 2.0 | 6.0 | 0.00 | 0.00 | 0.00 | 92 | 1009.5 |
| 20260506050139 | 75 | 134 | 3.0 | 3.0 | 0.00 | 0.00 | 0.00 | 92 | 1009.5 |
| 20260506045132 | 75 | 190 | 4.0 | 7.0 | 0.00 | 0.00 | 0.00 | 92 | 1009.5 |
| 20260506044631 | 75 | 159 | 2.0 | 4.0 | 0.00 | 0.00 | 0.00 | 92 | 1009.8 |
| 20260506044127 | 76 | 160 | 2.0 | 6.0 | 0.00 | 0.00 | 0.00 | 91 | 1009.7 |
| 20260506043624 | 76 | 117 | 2.0 | 7.0 | 0.00 | 0.00 | 0.00 | 91 | 1009.6 |
| 20260506043123 | 76 | 144 | 9.0 | 11.0 | 0.00 | 0.00 | 0.00 | 91 | 1009.5 |
| 20260506042621 | 76 | 130 | 6.0 | 9.0 | 0.00 | 0.00 | 0.00 | 91 | 1009.3 |
| 20260506042119 | 76 | 124 | 4.0 | 7.0 | 0.00 | 0.00 | 0.00 | 91 | 1009.4 |
| 20260506041618 | 76 | 152 | 2.0 | 6.0 | 0.00 | 0.00 | 0.00 | 91 | 1009.4 |
| 20260506041114 | 76 | 108 | 2.0 | 4.0 | 0.00 | 0.00 | 0.00 | 91 | 1009.3 |
| 20260506040612 | 76 | 140 | 1.0 | 4.0 | 0.00 | 0.00 | 0.00 | 91 | 1009.5 |
| 20260506040108 | 76 | 153 | 4.0 | 8.0 | 0.00 | 0.00 | 0.00 | 90 | 1009.3 |
| 20260506035605 | 76 | 137 | 3.0 | 4.0 | 0.00 | 0.00 | 0.00 | 90 | 1009.5 |
| 20260506035101 | 76 | 157 | 3.0 | 7.0 | 0.00 | 0.00 | 0.00 | 90 | 1009.4 |
| 20260506034559 | 76 | 148 | 2.0 | 3.0 | 0.00 | 0.00 | 0.00 | 90 | 1009.5 |
| 20260506034056 | 76 | 164 | 2.0 | 8.0 | 0.00 | 0.00 | 0.00 | 90 | 1009.4 |
| 20260506033553 | 76 | 117 | 5.0 | 7.0 | 0.00 | 0.00 | 0.00 | 90 | 1009.4 |
| 20260506033050 | 76 | 134 | 3.0 | 6.0 | 0.00 | 0.00 | 0.00 | 90 | 1009.2 |
| 20260506032547 | 76 | 135 | 5.0 | 7.0 | 0.00 | 0.00 | 0.00 | 90 | 1009.1 |
| 20260506032044 | 76 | 130 | 2.0 | 4.0 | 0.00 | 0.00 | 0.00 | 90 | 1008.9 |
| 20260506031542 | 76 | 138 | 1.0 | 6.0 | 0.00 | 0.00 | 0.00 | 90 | 1009.0 |
| 20260506031038 | 76 | 122 | 1.0 | 4.0 | 0.00 | 0.00 | 0.00 | 90 | 1009.2 |
| 20260506030536 | 76 | 170 | 2.0 | 4.0 | 0.00 | 0.00 | 0.00 | 90 | 1009.1 |
| 20260506030033 | 76 | 166 | 5.0 | 6.0 | 0.00 | 0.00 | 0.00 | 90 | 1008.8 |
| 20260506025530 | 76 | 148 | 3.0 | 4.0 | 0.00 | 0.00 | 0.00 | 90 | 1008.9 |
| 20260506025026 | 76 | 140 | 1.0 | 4.0 | 0.00 | 0.00 | 0.00 | 90 | 1008.8 |
| 20260506024523 | 76 | 139 | 2.0 | 3.0 | 0.00 | 0.00 | 0.00 | 90 | 1008.8 |
| 20260506024020 | 76 | 162 | 2.0 | 3.0 | 0.00 | 0.00 | 0.00 | 90 | 1008.5 |
| 20260506023516 | 76 | 127 | 1.0 | 3.0 | 0.00 | 0.00 | 0.00 | 90 | 1008.4 |
| 20260506023014 | 76 | 172 | 3.0 | 7.0 | 0.00 | 0.00 | 0.00 | 90 | 1008.4 |
| 20260506022511 | 77 | 213 | 2.0 | 4.0 | 0.00 | 0.00 | 0.00 | 90 | 1008.4 |
| 20260506022008 | 77 | 206 | 1.0 | 7.0 | 0.00 | 0.00 | 0.00 | 89 | 1008.3 |
| 20260506021506 | 77 | 156 | 4.0 | 8.0 | 0.00 | 0.00 | 0.00 | 89 | 1008.1 |
| 20260506021003 | 77 | 143 | 2.0 | 6.0 | 0.00 | 0.00 | 0.00 | 89 | 1008.2 |
| 20260506020500 | 77 | 160 | 4.0 | 11.0 | 0.00 | 0.00 | 0.00 | 89 | 1008.1 |
| 20260506015957 | 77 | 142 | 6.0 | 9.0 | 0.00 | 0.00 | 0.00 | 89 | 1008.0 |
| 20260506015455 | 77 | 167 | 2.0 | 6.0 | 0.00 | 0.00 | 0.00 | 89 | 1007.9 |
| 20260506014951 | 77 | 132 | 5.0 | 10.0 | 0.00 | 0.00 | 0.00 | 89 | 1007.8 |
| 20260506014448 | 77 | 137 | 4.0 | 7.0 | 0.00 | 0.00 | 0.00 | 88 | 1007.8 |
| 20260506013944 | 77 | 138 | 4.0 | 10.0 | 0.00 | 0.00 | 0.00 | 88 | 1007.7 |
| 20260506013443 | 77 | 186 | 3.0 | 8.0 | 0.00 | 0.00 | 0.00 | 88 | 1007.6 |
| 20260506012939 | 77 | 134 | 5.0 | 7.0 | 0.00 | 0.00 | 0.00 | 88 | 1007.5 |
| 20260506012435 | 77 | 158 | 4.0 | 8.0 | 0.00 | 0.00 | 0.00 | 87 | 1007.5 |
| 20260506011932 | 77 | 155 | 4.0 | 6.0 | 0.00 | 0.00 | 0.00 | 87 | 1007.4 |
| 20260506011430 | 77 | 133 | 5.0 | 10.0 | 0.00 | 0.00 | 0.00 | 87 | 1007.3 |
| 20260506010926 | 78 | 137 | 2.0 | 11.0 | 0.00 | 0.00 | 0.00 | 86 | 1007.4 |
| 20260506010426 | 78 | 209 | 4.0 | 7.0 | 0.00 | 0.00 | 0.00 | 86 | 1007.3 |
| 20260506005921 | 78 | 161 | 6.0 | 9.0 | 0.00 | 0.00 | 0.00 | 86 | 1007.3 |
| 20260506005419 | 78 | 141 | 4.0 | 9.0 | 0.00 | 0.00 | 0.00 | 85 | 1007.0 |
| 20260506004914 | 78 | 112 | 2.0 | 7.0 | 0.00 | 0.00 | 0.00 | 85 | 1007.0 |
| 20260506004413 | 78 | 116 | 5.0 | 7.0 | 0.00 | 0.00 | 0.00 | 85 | 1007.0 |
| 20260506003908 | 78 | 131 | 5.0 | 9.0 | 0.00 | 0.00 | 0.00 | 84 | 1006.9 |
| 20260506003404 | 78 | 127 | 2.0 | 8.0 | 0.00 | 0.00 | 0.00 | 83 | 1006.9 |
| 20260506002901 | 79 | 94 | 3.0 | 6.0 | 0.00 | 0.00 | 0.00 | 82 | 1006.9 |
| 20260506002357 | 79 | 136 | 3.0 | 6.0 | 0.00 | 0.00 | 0.00 | 82 | 1006.9 |
| 20260506001853 | 79 | 120 | 1.0 | 3.0 | 0.00 | 0.00 | 0.00 | 82 | 1007.0 |
| 20260506001350 | 79 | 186 | 1.0 | 4.0 | 0.00 | 0.00 | 0.00 | 82 | 1007.0 |
| 20260506000847 | 79 | 107 | 0.0 | 6.0 | 0.00 | 0.00 | 0.00 | 82 | 1006.9 |
| 20260506000346 | 79 | 177 | 1.0 | 6.0 | 0.00 | 0.00 | 0.00 | 81 | 1006.8 |
| 20260505235841 | 80 | 126 | 3.0 | 10.0 | 0.00 | 0.00 | 0.00 | 81 | 1006.9 |
| 20260505235339 | 80 | 299 | 2.0 | 8.0 | 0.00 | 0.00 | 0.00 | 80 | 1006.8 |
| 20260505234836 | 80 | 144 | 6.0 | 9.0 | 0.00 | 0.00 | 0.00 | 80 | 1006.7 |
| 20260505234334 | 80 | 124 | 4.0 | 11.0 | 0.00 | 0.00 | 0.00 | 80 | 1006.6 |
| 20260505233830 | 80 | 128 | 2.0 | 10.0 | 0.00 | 0.00 | 0.00 | 80 | 1006.6 |
| 20260505233328 | 80 | 118 | 4.0 | 13.0 | 0.00 | 0.00 | 0.00 | 79 | 1006.6 |
| 20260505232825 | 80 | 137 | 5.0 | 8.0 | 0.00 | 0.00 | 0.00 | 79 | 1006.7 |
| 20260505232323 | 80 | 141 | 1.0 | 9.0 | 0.00 | 0.00 | 0.00 | 79 | 1006.5 |
| 20260505231819 | 81 | 167 | 6.0 | 13.0 | 0.00 | 0.00 | 0.00 | 78 | 1006.5 |
| 20260505231318 | 81 | 148 | 4.0 | 10.0 | 0.00 | 0.00 | 0.00 | 78 | 1006.6 |
| 20260505230815 | 82 | 294 | 2.0 | 7.0 | 0.00 | 0.00 | 0.00 | 76 | 1006.6 |
| 20260505230312 | 82 | 188 | 3.0 | 7.0 | 0.00 | 0.00 | 0.00 | 77 | 1006.5 |
| 20260505225809 | 82 | 132 | 7.0 | 10.0 | 0.00 | 0.00 | 0.00 | 77 | 1006.7 |
| 20260505225306 | 82 | 102 | 6.0 | 7.0 | 0.00 | 0.00 | 0.00 | 77 | 1006.6 |
| 20260505224801 | 82 | 225 | 2.0 | 4.0 | 0.00 | 0.00 | 0.00 | 77 | 1006.6 |
| 20260505224259 | 82 | 142 | 5.0 | 13.0 | 0.00 | 0.00 | 0.00 | 77 | 1006.4 |
| 20260505223756 | 82 | 251 | 3.0 | 6.0 | 0.00 | 0.00 | 0.00 | 78 | 1006.3 |
| 20260505223253 | 83 | 112 | 4.0 | 9.0 | 0.00 | 0.00 | 0.00 | 76 | 1006.5 |
| 20260505222748 | 83 | 151 | 3.0 | 7.0 | 0.00 | 0.00 | 0.00 | 76 | 1006.6 |
| 20260505222245 | 83 | 157 | 5.0 | 11.0 | 0.00 | 0.00 | 0.00 | 74 | 1006.5 |
| 20260505221742 | 83 | 204 | 6.0 | 13.0 | 0.00 | 0.00 | 0.00 | 75 | 1006.6 |
| 20260505221239 | 83 | 177 | 2.0 | 6.0 | 0.00 | 0.00 | 0.00 | 74 | 1006.6 |
| 20260505220735 | 83 | 122 | 3.0 | 8.0 | 0.00 | 0.00 | 0.00 | 75 | 1006.7 |
| 20260505220233 | 83 | 228 | 5.0 | 8.0 | 0.00 | 0.00 | 0.00 | 74 | 1006.6 |
| 20260505215731 | 84 | 129 | 4.0 | 9.0 | 0.00 | 0.00 | 0.00 | 74 | 1006.6 |
| 20260505215229 | 84 | 111 | 3.0 | 8.0 | 0.00 | 0.00 | 0.00 | 71 | 1006.9 |
| 20260505214726 | 84 | 120 | 3.0 | 8.0 | 0.00 | 0.00 | 0.00 | 74 | 1006.8 |
| 20260505214224 | 85 | 211 | 4.0 | 7.0 | 0.00 | 0.00 | 0.00 | 73 | 1006.7 |
| 20260505213721 | 84 | 145 | 3.0 | 6.0 | 0.00 | 0.00 | 0.00 | 74 | 1006.7 |
| 20260505213218 | 84 | 269 | 2.0 | 10.0 | 0.00 | 0.00 | 0.00 | 74 | 1007.0 |
| 20260505212714 | 84 | 226 | 4.0 | 9.0 | 0.00 | 0.00 | 0.00 | 76 | 1007.2 |
| 20260505212211 | 83 | 130 | 2.0 | 10.0 | 0.00 | 0.00 | 0.00 | 75 | 1007.2 |
| 20260505211708 | 83 | 199 | 8.0 | 11.0 | 0.00 | 0.00 | 0.00 | 76 | 1007.2 |
| 20260505211205 | 84 | 178 | 6.0 | 14.0 | 0.00 | 0.00 | 0.00 | 73 | 1007.2 |
| 20260505210702 | 84 | 168 | 4.0 | 7.0 | 0.00 | 0.00 | 0.00 | 75 | 1007.4 |
| 20260505210159 | 85 | 94 | 3.0 | 9.0 | 0.00 | 0.00 | 0.00 | 75 | 1007.3 |
| 20260505205656 | 85 | 151 | 3.0 | 8.0 | 0.00 | 0.00 | 0.00 | 72 | 1007.6 |
| 20260505205154 | 84 | 163 | 2.0 | 8.0 | 0.00 | 0.00 | 0.00 | 76 | 1007.7 |
| 20260505204650 | 84 | 127 | 2.0 | 11.0 | 0.00 | 0.00 | 0.00 | 76 | 1007.8 |
| 20260505204148 | 85 | 138 | 6.0 | 11.0 | 0.00 | 0.00 | 0.00 | 71 | 1008.0 |
| 20260505203645 | 85 | 155 | 2.0 | 7.0 | 0.00 | 0.00 | 0.00 | 73 | 1008.0 |
| 20260505203142 | 84 | 133 | 2.0 | 7.0 | 0.00 | 0.00 | 0.00 | 75 | 1008.0 |
| 20260505202638 | 84 | 188 | 4.0 | 7.0 | 0.00 | 0.00 | 0.00 | 73 | 1008.1 |
| 20260505202134 | 84 | 108 | 4.0 | 7.0 | 0.00 | 0.00 | 0.00 | 74 | 1008.0 |
| 20260505201631 | 83 | 162 | 4.0 | 8.0 | 0.00 | 0.00 | 0.00 | 74 | 1008.2 |
| 20260505201129 | 83 | 175 | 8.0 | 11.0 | 0.00 | 0.00 | 0.00 | 74 | 1008.2 |
| 20260505200626 | 83 | 307 | 2.0 | 6.0 | 0.00 | 0.00 | 0.00 | 74 | 1008.5 |
| 20260505200123 | 84 | 195 | 1.0 | 9.0 | 0.00 | 0.00 | 0.00 | 73 | 1008.3 |
| 20260505195619 | 84 | 129 | 1.0 | 8.0 | 0.00 | 0.00 | 0.00 | 75 | 1008.4 |
| 20260505195117 | 83 | 141 | 1.0 | 3.0 | 0.00 | 0.00 | 0.00 | 77 | 1008.6 |
| 20260505194614 | 83 | 110 | 2.0 | 11.0 | 0.00 | 0.00 | 0.00 | 76 | 1008.8 |
| 20260505194109 | 84 | 120 | 2.0 | 10.0 | 0.00 | 0.00 | 0.00 | 74 | 1008.7 |
| 20260505193607 | 85 | 158 | 3.0 | 8.0 | 0.00 | 0.00 | 0.00 | 71 | 1008.8 |
| 20260505193104 | 85 | 229 | 5.0 | 8.0 | 0.00 | 0.00 | 0.00 | 71 | 1008.8 |
| 20260505192603 | 84 | 89 | 3.0 | 9.0 | 0.00 | 0.00 | 0.00 | 77 | 1008.7 |
| 20260505192100 | 82 | 173 | 3.0 | 6.0 | 0.00 | 0.00 | 0.00 | 80 | 1008.7 |
| 20260505191558 | 83 | 135 | 2.0 | 6.0 | 0.00 | 0.00 | 0.00 | 77 | 1009.1 |
| 20260505191056 | 83 | 124 | 1.0 | 2.0 | 0.00 | 0.00 | 0.00 | 75 | 1009.0 |
| 20260505190555 | 84 | 133 | 2.0 | 6.0 | 0.00 | 0.00 | 0.00 | 75 | 1008.9 |
| 20260505190052 | 84 | 211 | 2.0 | 4.0 | 0.00 | 0.00 | 0.00 | 75 | 1009.2 |
| 20260505185549 | 84 | 182 | 3.0 | 6.0 | 0.00 | 0.00 | 0.00 | 74 | 1009.0 |
| 20260505185045 | 85 | 225 | 2.0 | 6.0 | 0.00 | 0.00 | 0.00 | 74 | 1009.1 |
| 20260505184542 | 83 | 225 | 2.0 | 6.0 | 0.00 | 0.00 | 0.00 | 79 | 1009.2 |
| 20260505184039 | 82 | 213 | 4.0 | 6.0 | 0.00 | 0.00 | 0.00 | 78 | 1009.0 |
| 20260505183535 | 82 | 113 | 3.0 | 6.0 | 0.00 | 0.00 | 0.00 | 79 | 1009.4 |
| 20260505183033 | 81 | 185 | 3.0 | 9.0 | 0.00 | 0.00 | 0.00 | 80 | 1009.3 |
| 20260505182529 | 80 | 147 | 3.0 | 4.0 | 0.00 | 0.00 | 0.00 | 81 | 1009.3 |
| 20260505182026 | 80 | 102 | 1.0 | 6.0 | 0.00 | 0.00 | 0.00 | 81 | 1009.4 |
| 20260505181522 | 80 | 197 | 1.0 | 3.0 | 0.00 | 0.00 | 0.00 | 81 | 1009.5 |
| 20260505181020 | 80 | 133 | 4.0 | 8.0 | 0.00 | 0.00 | 0.00 | 80 | 1009.5 |
| 20260505180515 | 81 | 142 | 3.0 | 6.0 | 0.00 | 0.00 | 0.00 | 79 | 1009.4 |
| 20260505180014 | 81 | 152 | 2.0 | 7.0 | 0.00 | 0.00 | 0.00 | 80 | 1009.4 |
| 20260505175508 | 80 | 228 | 2.0 | 3.0 | 0.00 | 0.00 | 0.00 | 82 | 1009.5 |
| 20260505175006 | 80 | 222 | 2.0 | 6.0 | 0.00 | 0.00 | 0.00 | 79 | 1009.5 |
| 20260505174503 | 80 | 206 | 3.0 | 9.0 | 0.00 | 0.00 | 0.00 | 80 | 1009.6 |
| 20260505173959 | 80 | 229 | 2.0 | 7.0 | 0.00 | 0.00 | 0.00 | 80 | 1009.8 |
| 20260505173455 | 80 | 233 | 2.0 | 6.0 | 0.00 | 0.00 | 0.00 | 80 | 1009.8 |
| 20260505172952 | 81 | 191 | 4.0 | 6.0 | 0.00 | 0.00 | 0.00 | 78 | 1009.8 |
| 20260505172451 | 82 | 247 | 3.0 | 6.0 | 0.00 | 0.00 | 0.00 | 78 | 1009.7 |
| 20260505171950 | 80 | 226 | 3.0 | 7.0 | 0.00 | 0.00 | 0.00 | 80 | 1009.7 |
| 20260505171447 | 79 | 225 | 2.0 | 4.0 | 0.00 | 0.00 | 0.00 | 82 | 1009.6 |
| 20260505170944 | 79 | 213 | 4.0 | 7.0 | 0.00 | 0.00 | 0.00 | 81 | 1009.7 |
| 20260505170440 | 79 | 214 | 3.0 | 6.0 | 0.00 | 0.00 | 0.00 | 81 | 1009.7 |
| 20260505165936 | 79 | 198 | 6.0 | 9.0 | 0.00 | 0.00 | 0.00 | 81 | 1009.9 |
| 20260505165432 | 79 | 211 | 4.0 | 11.0 | 0.00 | 0.00 | 0.00 | 81 | 1009.7 |
| 20260505164927 | 78 | 107 | 6.0 | 8.0 | 0.00 | 0.00 | 0.00 | 82 | 1009.8 |
| 20260505164424 | 78 | 157 | 2.0 | 7.0 | 0.00 | 0.00 | 0.00 | 82 | 1009.7 |
| 20260505163922 | 78 | 223 | 2.0 | 7.0 | 0.00 | 0.00 | 0.00 | 82 | 1009.9 |
| 20260505163421 | 78 | 224 | 3.0 | 6.0 | 0.00 | 0.00 | 0.00 | 83 | 1010.0 |
| 20260505162920 | 78 | 142 | 3.0 | 6.0 | 0.00 | 0.00 | 0.00 | 83 | 1009.9 |
| 20260505162415 | 78 | 168 | 4.0 | 8.0 | 0.00 | 0.00 | 0.00 | 84 | 1010.1 |
| 20260505161912 | 78 | 208 | 4.0 | 8.0 | 0.00 | 0.00 | 0.00 | 83 | 1009.8 |
| 20260505161409 | 78 | 220 | 3.0 | 8.0 | 0.00 | 0.00 | 0.00 | 83 | 1010.1 |
| 20260505160906 | 78 | 225 | 1.0 | 6.0 | 0.00 | 0.00 | 0.00 | 86 | 1009.8 |
| 20260505160404 | 77 | 234 | 2.0 | 7.0 | 0.00 | 0.00 | 0.00 | 85 | 1009.8 |
| 20260505153343 | 77 | 119 | 1.0 | 3.0 | 0.00 | 0.00 | 0.00 | 87 | 1010.0 |
| 20260505152840 | 77 | 105 | 1.0 | 3.0 | 0.00 | 0.00 | 0.00 | 86 | 1009.9 |
| 20260505152338 | 77 | 125 | 3.0 | 7.0 | 0.00 | 0.00 | 0.00 | 86 | 1009.9 |
| 20260505151837 | 77 | 172 | 2.0 | 4.0 | 0.00 | 0.00 | 0.00 | 87 | 1009.8 |
| 20260505151334 | 77 | 155 | 2.0 | 6.0 | 0.00 | 0.00 | 0.00 | 88 | 1009.7 |
| 20260505150831 | 76 | 233 | 0.0 | 4.0 | 0.00 | 0.00 | 0.00 | 89 | 1009.6 |
| 20260505150329 | 76 | 145 | 2.0 | 8.0 | 0.00 | 0.00 | 0.00 | 89 | 1009.6 |
| 20260505140258 | 73 | 200 | 2.0 | 6.0 | 0.00 | 0.00 | 0.00 | 93 | 1009.3 |
| 20260505130222 | 71 | 175 | 1.0 | 3.0 | 0.00 | 0.00 | 0.00 | 96 | 1009.4 |
| 20260505124712 | 71 | 145 | 1.0 | 4.0 | 0.00 | 0.00 | 0.00 | 96 | 1009.0 |
| 20260505124209 | 71 | 179 | 3.0 | 6.0 | 0.00 | 0.00 | 0.00 | 96 | 1009.2 |
| 20260505123705 | 70 | 164 | 3.0 | 7.0 | 0.00 | 0.00 | 0.00 | 96 | 1009.1 |
| 20260505123202 | 70 | 230 | 1.0 | 4.0 | 0.00 | 0.00 | 0.00 | 96 | 1009.1 |
| 20260505122658 | 70 | 126 | 0.0 | 4.0 | 0.00 | 0.00 | 0.00 | 96 | 1009.0 |
| 20260505122156 | 70 | 223 | 2.0 | 6.0 | 0.00 | 0.00 | 0.00 | 96 | 1009.0 |
| 20260505121652 | 70 | 112 | 1.0 | 2.0 | 0.00 | 0.00 | 0.00 | 96 | 1009.2 |
| 20260505121149 | 70 | 129 | 2.0 | 4.0 | 0.00 | 0.00 | 0.00 | 96 | 1009.0 |
| 20260505120645 | 70 | 155 | 1.0 | 3.0 | 0.00 | 0.00 | 0.00 | 96 | 1008.9 |
| 20260505120141 | 70 | 177 | 3.0 | 4.0 | 0.00 | 0.00 | 0.00 | 96 | 1008.8 |
| 20260505115635 | 70 | 141 | 0.0 | 6.0 | 0.00 | 0.00 | 0.00 | 96 | 1008.9 |
| 20260505115133 | 70 | 184 | 1.0 | 3.0 | 0.00 | 0.00 | 0.00 | 96 | 1008.8 |
| 20260505114630 | 70 | 171 | 2.0 | 6.0 | 0.00 | 0.00 | 0.00 | 96 | 1008.7 |
| 20260505114126 | 70 | 182 | 3.0 | 6.0 | 0.00 | 0.00 | 0.00 | 96 | 1008.7 |
| 20260505113623 | 69 | 169 | 1.0 | 4.0 | 0.00 | 0.00 | 0.00 | 96 | 1008.5 |
| 20260505113120 | 69 | 213 | 3.0 | 6.0 | 0.00 | 0.00 | 0.00 | 96 | 1008.5 |
| 20260505112616 | 69 | 147 | 1.0 | 2.0 | 0.00 | 0.00 | 0.00 | 96 | 1008.6 |
| 20260505112115 | 69 | 119 | 3.0 | 7.0 | 0.00 | 0.00 | 0.00 | 96 | 1008.4 |
| 20260505111613 | 69 | 127 | 0.0 | 6.0 | 0.00 | 0.00 | 0.00 | 96 | 1008.6 |
| 20260505111109 | 69 | 194 | 1.0 | 2.0 | 0.00 | 0.00 | 0.00 | 96 | 1008.5 |
| 20260505110606 | 69 | 83 | 1.0 | 2.0 | 0.00 | 0.00 | 0.00 | 96 | 1008.7 |
| 20260505102039 | 69 | 131 | 3.0 | 4.0 | 0.00 | 0.00 | 0.00 | 96 | 1008.6 |
| 20260505101537 | 69 | 148 | 1.0 | 4.0 | 0.00 | 0.00 | 0.00 | 96 | 1008.7 |
| 20260505101033 | 69 | 138 | 1.0 | 2.0 | 0.00 | 0.00 | 0.00 | 96 | 1008.8 |
| 20260505100530 | 69 | 157 | 1.0 | 2.0 | 0.00 | 0.00 | 0.00 | 96 | 1009.1 |
| 20260505100027 | 69 | 173 | 1.0 | 3.0 | 0.00 | 0.00 | 0.00 | 96 | 1008.9 |
| 20260505095523 | 69 | 120 | 0.0 | 6.0 | 0.00 | 0.00 | 0.00 | 96 | 1008.7 |
| 20260505095019 | 69 | 229 | 0.0 | 3.0 | 0.00 | 0.00 | 0.00 | 96 | 1008.8 |
| 20260505094516 | 69 | 88 | 0.0 | 2.0 | 0.00 | 0.00 | 0.00 | 96 | 1008.6 |
| 20260505094013 | 69 | 197 | 3.0 | 4.0 | 0.00 | 0.00 | 0.00 | 96 | 1008.8 |
| 20260505093509 | 69 | 191 | 4.0 | 4.0 | 0.00 | 0.00 | 0.00 | 96 | 1008.8 |
| 20260505093006 | 69 | 104 | 0.0 | 3.0 | 0.00 | 0.00 | 0.00 | 96 | 1008.9 |
| 20260505092504 | 68 | 137 | 0.0 | 2.0 | 0.00 | 0.00 | 0.00 | 96 | 1008.9 |
| 20260505092001 | 69 | 122 | 0.0 | 2.0 | 0.00 | 0.00 | 0.00 | 95 | 1009.3 |
| 20260505091459 | 68 | 111 | 1.0 | 2.0 | 0.00 | 0.00 | 0.00 | 95 | 1009.2 |
| 20260505090957 | 68 | 164 | 1.0 | 3.0 | 0.00 | 0.00 | 0.00 | 95 | 1009.0 |
| 20260505090454 | 68 | 166 | 1.0 | 3.0 | 0.00 | 0.00 | 0.00 | 95 | 1009.3 |
| 20260505085952 | 68 | 118 | 0.0 | 2.0 | 0.00 | 0.00 | 0.00 | 95 | 1009.1 |
| 20260505085449 | 68 | 157 | 2.0 | 6.0 | 0.00 | 0.00 | 0.00 | 95 | 1008.9 |
| 20260505084947 | 68 | 116 | 1.0 | 2.0 | 0.00 | 0.00 | 0.00 | 95 | 1009.2 |
| 20260505084446 | 68 | 187 | 3.0 | 4.0 | 0.00 | 0.00 | 0.00 | 95 | 1009.3 |
| 20260505083943 | 69 | 156 | 0.0 | 3.0 | 0.00 | 0.00 | 0.00 | 95 | 1009.3 |
| 20260505083440 | 69 | 154 | 1.0 | 3.0 | 0.00 | 0.00 | 0.00 | 95 | 1009.3 |
| 20260505082936 | 69 | 137 | 0.0 | 4.0 | 0.00 | 0.00 | 0.00 | 95 | 1009.4 |
| 20260505082432 | 68 | 199 | 1.0 | 7.0 | 0.00 | 0.00 | 0.00 | 95 | 1009.5 |
| 20260505081929 | 68 | 245 | 1.0 | 4.0 | 0.00 | 0.00 | 0.00 | 95 | 1009.6 |
| 20260505081426 | 68 | 138 | 0.0 | 2.0 | 0.00 | 0.00 | 0.00 | 95 | 1009.7 |
| 20260505080922 | 68 | 163 | 1.0 | 2.0 | 0.00 | 0.00 | 0.00 | 95 | 1009.7 |
| 20260505080419 | 68 | 200 | 0.0 | 2.0 | 0.00 | 0.00 | 0.00 | 95 | 1009.7 |
| 20260505075914 | 68 | 124 | 1.0 | 3.0 | 0.00 | 0.00 | 0.00 | 94 | 1009.9 |
| 20260505075411 | 68 | 128 | 1.0 | 6.0 | 0.00 | 0.00 | 0.00 | 94 | 1009.9 |
| 20260505074909 | 68 | 211 | 2.0 | 4.0 | 0.00 | 0.00 | 0.00 | 94 | 1009.7 |
| 20260505074406 | 68 | 129 | 2.0 | 2.0 | 0.00 | 0.00 | 0.00 | 94 | 1010.0 |
| 20260505073903 | 68 | 250 | 1.0 | 2.0 | 0.00 | 0.00 | 0.00 | 94 | 1010.1 |
| 20260505073401 | 68 | 143 | 0.0 | 3.0 | 0.00 | 0.00 | 0.00 | 94 | 1010.0 |
| 20260505072858 | 68 | 151 | 1.0 | 2.0 | 0.00 | 0.00 | 0.00 | 94 | 1009.9 |
| 20260505072354 | 68 | 158 | 0.0 | 1.0 | 0.00 | 0.00 | 0.00 | 94 | 1010.1 |
| 20260505071850 | 68 | 141 | 1.0 | 2.0 | 0.00 | 0.00 | 0.00 | 93 | 1010.1 |
| 20260505071346 | 68 | 190 | 1.0 | 1.0 | 0.00 | 0.00 | 0.00 | 93 | 1010.1 |
| 20260505070845 | 68 | 170 | 1.0 | 2.0 | 0.00 | 0.00 | 0.00 | 93 | 1010.2 |
| 20260505070341 | 68 | 228 | 1.0 | 4.0 | 0.00 | 0.00 | 0.00 | 93 | 1010.2 |
| 20260505065836 | 68 | 151 | 0.0 | 6.0 | 0.00 | 0.00 | 0.00 | 93 | 1010.2 |
| 20260505065333 | 69 | 134 | 1.0 | 3.0 | 0.00 | 0.00 | 0.00 | 93 | 1010.2 |
| 20260505064830 | 69 | 141 | 1.0 | 3.0 | 0.00 | 0.00 | 0.00 | 92 | 1009.9 |
| 20260505064327 | 69 | 155 | 1.0 | 7.0 | 0.00 | 0.00 | 0.00 | 92 | 1010.2 |
| 20260505063825 | 69 | 180 | 1.0 | 4.0 | 0.00 | 0.00 | 0.00 | 92 | 1010.0 |
| 20260505063321 | 69 | 104 | 4.0 | 4.0 | 0.00 | 0.00 | 0.00 | 92 | 1010.2 |
| 20260505062818 | 69 | 181 | 2.0 | 6.0 | 0.00 | 0.00 | 0.00 | 92 | 1010.2 |
| 20260505062315 | 69 | 124 | 4.0 | 7.0 | 0.00 | 0.00 | 0.00 | 92 | 1010.2 |
| 20260505061812 | 69 | 225 | 2.0 | 6.0 | 0.00 | 0.00 | 0.00 | 92 | 1010.5 |
| 20260505061310 | 69 | 102 | 0.0 | 13.0 | 0.00 | 0.00 | 0.00 | 92 | 1010.4 |
| 20260505060807 | 69 | 119 | 1.0 | 4.0 | 0.00 | 0.00 | 0.00 | 92 | 1010.3 |
| 20260505060304 | 69 | 174 | 2.0 | 4.0 | 0.00 | 0.00 | 0.00 | 91 | 1010.5 |
| 20260505055759 | 69 | 219 | 4.0 | 7.0 | 0.00 | 0.00 | 0.00 | 92 | 1010.5 |